[Date Prev][Date Next][Thread Prev][Thread Next] - [Date Index][Thread Index][Author Index]

2 Line ISS Keps 10-12



ISS
1 25544U 98067A   02285.19403288  .00047184  00000-0  53435-3 0  2464
2 25544  51.6366 185.3013 0017292   1.9912  96.0827 15.61746799222286


----
Via the sarex mailing list at AMSAT.ORG courtesy of AMSAT-NA.
To unsubscribe, send "unsubscribe sarex" to Majordomo@amsat.org



AMSAT Top AMSAT Home